User: anonymous   Login
Location: Newark
(34.9471°N, 136.1778°E)
Time: 01:57:06
(UTC+00:00)
Language:

Oscar 19 - Orbit

View from above orbital plane
View from above orbital plane
View from above satellite
View from above satellite

Ground track
Ground track

The orbit data is extracted from the following two-line orbital elements,

1 20442U 90005G   20058.83821118  .00000010  00000-0  19868-4 0  9990
2 20442  98.6802   5.7895 0012719 117.9507 242.2966 14.32945747572776
Epoch (UTC): 27 February 2020 20:07:01
Eccentricity: 0.0012719
inclination: 98.6802°
perigee height: 773 km
apogee height: 791 km
right ascension of ascending node: 5.7895°
argument of perigee: 117.9507°
revolutions per day: 14.32945747
mean anomaly at epoch: 242.2966°
orbit number at epoch: 57277

The dashed part of the orbit path shows where the satellite is in the earth's shadow,  

DLR